Regional Weather Roundup
Issued by NWS Cleveland, OH

Home | Current Version | Previous Version | Graphics & Text | Print | Product List | Glossary On
Versions: 1 2 3 4 5 6 7 8 9 10 11 12 13 14 15 16 17 18 19 20 21 22 23 24 25 26 27 28 29 30 31 32 33 34 35 36 37 38 39 40 41 42 43 44 45 46 47 48 49 50
000
ASUS41 KCLE 012310
RWRCLE
OHIO REGIONAL WEATHER ROUNDUP
NATIONAL WEATHER SERVICE CLEVELAND, OH
700 PM EDT WED OCT 01 2014

NOTE: "FAIR" INDICATES FEW OR NO CLOUDS BELOW 12,000 FEET WITH NO
SIGNIFICANT WEATHER AND/OR OBSTRUCTIONS TO VISIBILITY.

OHZ001>008-015>018-024>027-034-035-043-044-020000-
   NORTHWEST OHIO

CITY           SKY/WX    TMP DP  RH WIND       PRES   REMARKS
DEFIANCE       CLEAR     66  48  52 SE3       30.00S
FINDLAY        CLEAR     66  49  54 S5        30.00R
TOLEDO EXPRESS CLEAR     63  54  72 E5        30.01R
TOLEDO EXEC    CLEAR     64  54  69 E6        30.02S
LIMA           CLEAR     65  51  60 NE3       30.00R
$$

OHZ009>014-019>023-028>033-038-089-020000-
   NORTHEAST OHIO

CITY           SKY/WX    TMP DP  RH WIND       PRES   REMARKS
CLE-HOPKINS    PTCLDY    63  58  83 NE8       30.03S
CLE-LAKEFRONT  MOCLDY    65  60  84 NE9       30.00F
CUY CO. ARPT   PTCLDY    63  59  88 NE7       30.02R
LORAIN-ELYRIA  PTCLDY    65  58  78 N6        30.02R
ASHTABULA      CLEAR     63  59  87 NE3       30.03R
AKRON-CANTON   PTCLDY    62  53  72 SE6       30.02S
WOOSTER        CLEAR     61  54  77 CALM      30.03S HAZE
MANSFIELD      CLEAR     61  54  77 SE7       30.02S
YOUNGSTOWN     PTCLDY    61  57  87 CALM      30.03R
$$

OHZ042-051>053-060>062-070>072-077>081-020000-
  SOUTHWEST OHIO

CITY           SKY/WX    TMP DP  RH WIND       PRES   REMARKS
CINC-COVINGTON PTCLDY    74  53  48 E8        29.98S
CINC-LUNKEN    CLEAR     70  55  59 NE5       29.98S
HAMILTON       PTCLDY    68  53  58 NE6       30.00S
DAYTON         CLEAR     65  51  60 SE5       30.02R
WRIGHT-PAT AFB CLEAR     65  52  64 SW2       30.00S
DAYTON GENERAL CLEAR     64  51  62 CALM      30.00S
WILMINGTON     CLEAR     66  47  50 NE3       30.01R
$$

OHZ036-037-039>041-045>050-054>059-063>069-073>076-082>088-020000-
  CENTRAL AND SOUTHEAST OHIO

CITY           SKY/WX    TMP DP  RH WIND       PRES   REMARKS
COLUMBUS       CLEAR     65  52  62 NE10      30.00S
OSU AIRPORT    CLEAR     64  50  60 NE3       30.00S
BOLTON FIELD   CLEAR     66  52  59 CALM      30.01S
RICKENBACK AFB CLEAR     66  50  55 W3        30.00R
NEWARK         CLEAR     61  51  70 NE3       30.02S
MARION         CLEAR     65  50  58 SE7       30.01R
LANCASTER      CLEAR     65  52  62 NE7       30.01R
ZANESVILLE     CLEAR     63  52  67 NW6       30.02R
NEW PHILLY     CLEAR     64  56  75 CALM      30.02S
$$


USA.gov is the U.S. government's official web portal to all federal, state and local government web resources and services.